Location: Saint-Maurice-d�Ard�che
(44.5216°N, 4.4002°E)
Time: 02:21:05
(UTC+00:00)

Spot 2 Rocket - Pass Details

Date: 30 March 2020
Orbit: 757 x 772 km, 98.6° (Epoch: 05 June)

Event Time Altitude Azimuth Distance (km) Brightness Sun altitude
Exits shadow 19:55:38 32° 86° (E) 1,301 4.2 -19.2°
Maximum altitude 19:56:28 34° 67° (ENE) 1,252 4.3 -19.3°
Drops below altitude 10° 20:01:03 10° 3° (N) 2,327 6.3 -20.0°
Sets 20:03:32 0° 355° (N) 3,257 7.2 -20.4°
